Regional Weather Roundup
Issued by NWS

Home | Current Version | Previous Version | Text Only | Print | Product List | Glossary On
Versions: 1 2 3 4 5 6 7 8 9 10 11 12 13 14 15 16 17 18 19 20 21 22 23 24 25 26 27 28 29 30 31 32 33 34 35 36 37 38 39 40 41 42 43 44 45 46 47 48 49 50
296
ASUS43 KLSX 262010
RWRMO

WEATHER SUMMARY FOR MISSOURI
NATIONAL WEATHER SERVICE SPRINGFIELD MO
300 PM CDT WED APR 26 2017

NOTE: "FAIR" INDICATES FEW OR NO CLOUDS BELOW 12,000 FEET WITH NO
       SIGNIFICANT WEATHER AND/OR OBSTRUCTIONS TO VISIBILITY.
       CURRENT SKY AND/OR WEATHER CONDITIONS ARE NOT AVAILABLE FOR
       CHILLICOTHE AND FARMINGTON.

MOZ001>031-035>038-043-044-053-054-262100-
...NORTHERN AND WESTERN MISSOURI...

CITY           SKY/WX    TMP DP  RH WIND       PRES   REMARKS
KANSAS CTY INT CLOUDY    48  39  71 N13       29.60F
KANSAS C DTWN  CLOUDY    48  40  73 N6        29.60F
LEE`S SUMMIT   LGT RAIN  46  42  86 NW14      29.60F
ST JOSEPH      CLOUDY    51  40  65 N15G22    29.62S
CHILLICOTHE      N/A     50  42  74 NW6       29.60F
KIRKSVILLE     LGT RAIN  46  44  93 N9        29.58R FOG

$$
MOZ066>068-077>081-088>096-101>105-262100-
...SOUTHWEST MISSOURI...

CITY           SKY/WX    TMP DP  RH WIND       PRES   REMARKS
SPRINGFIELD    CLOUDY    49  47  93 N15       29.53F
JOPLIN         CLOUDY    47  45  93 N9        29.60F
BRANSON        LGT RAIN  57  57 100 NW7       29.52R VSB 1

$$
MOZ032>034-039>042-045>050-055>058-069>072-262100-
...CENTRAL MISSOURI...

CITY           SKY/WX    TMP DP  RH WIND       PRES   REMARKS
COLUMBIA       LGT RAIN  50  49  96 N9        29.54F FOG
JEFFERSON CITY CLOUDY    52  48  86 NW7       29.54F
ROLLA          LGT RAIN  57  57 100 NW10      29.50R VSB 1
SEDALIA        CLOUDY    47  46  97 NW10      29.58R
WHITEMAN AFB   LGT RAIN  45  45 100 NW10      29.57R FOG
OSAGE BEACH    CLOUDY    48  47  96 N5        29.54F

$$
MOZ051-052-059>065-262100-
...EAST CENTRAL MISSOURI...

CITY           SKY/WX    TMP DP  RH WIND       PRES   REMARKS
ST LOUIS INTL  TSTM      64  59  83 S9        29.56S
SPIRIT OF STL  TSTM      62  60  93 SE7       29.53F
ST CHARLES     RAIN      63  61  93 S3        29.55R FOG

$$
MOZ072>076-082>087-097>100-106>115-262100-
...SOUTH CENTRAL AND SOUTHEAST MISSOURI...

CITY           SKY/WX    TMP DP  RH WIND       PRES   REMARKS
CAPE GIRARDEAU LGT RAIN  62  58  86 NW5       29.58R
FARMINGTON     LGT RAIN  61  60  97 S5        29.57F
POPLAR BLUFF   LGT RAIN  60  59  96 NE8       29.55F
WEST PLAINS    RAIN      57  56  96 E8        29.49F FOG

$$




USA.gov is the U.S. government's official web portal to all federal, state and local government web resources and services.